TimeEDT,TemperatureF,Dew PointF,Humidity,Sea Level PressureIn,VisibilityMPH,Wind Direction,Wind SpeedMPH,Gust SpeedMPH,PrecipitationIn,Events,Conditions,WindDirDegrees,DateUTC
12:05 AM,24.8,15.8,69,29.62,5.0,Variable,3.5,-,0.00,Snow,Light Snow,0,2013-03-23 04:05:00
12:18 AM,24.8,15.8,69,29.61,5.0,Variable,4.6,-,0.00,Snow,Light Snow,0,2013-03-23 04:18:00
12:52 AM,24.1,16.0,71,29.65,9.0,Variable,4.6,-,0.00,,Overcast,0,2013-03-23 04:52:00
1:52 AM,24.1,16.0,71,29.65,7.0,WNW,5.8,-,0.00,Snow,Light Snow,300,2013-03-23 05:52:00
2:48 AM,24.8,15.8,69,29.58,7.0,Variable,5.8,-,0.00,Snow,Light Snow,0,2013-03-23 06:48:00
2:52 AM,24.1,16.0,71,29.62,7.0,Variable,4.6,-,0.00,Snow,Light Snow,0,2013-03-23 06:52:00
3:02 AM,24.8,15.8,69,29.57,6.0,Variable,4.6,-,0.00,Snow,Light Snow,0,2013-03-23 07:02:00
3:52 AM,24.1,16.0,71,29.60,10.0,NNW,3.5,-,0.00,,Overcast,330,2013-03-23 07:52:00
4:52 AM,25.0,17.1,72,29.59,10.0,Variable,3.5,-,N/A,,Overcast,0,2013-03-23 08:52:00
5:52 AM,25.0,18.0,75,29.57,3.0,West,8.1,-,0.00,Snow,Light Snow,270,2013-03-23 09:52:00
6:01 AM,24.8,17.6,74,29.51,2.0,Variable,3.5,-,0.00,Snow,Light Snow,0,2013-03-23 10:01:00
6:10 AM,24.8,19.4,80,29.52,1.8,West,8.1,-,0.00,Snow,Light Snow,280,2013-03-23 10:10:00
6:39 AM,24.8,19.4,80,29.52,3.0,West,9.2,-,0.00,Snow,Light Snow,280,2013-03-23 10:39:00
6:50 AM,24.8,19.4,80,29.53,5.0,West,10.4,19.6,0.00,Snow,Light Snow,280,2013-03-23 10:50:00
6:52 AM,25.0,19.0,78,29.57,4.0,West,8.1,19.6,0.00,Snow,Light Snow,280,2013-03-23 10:52:00
7:01 AM,26.6,19.4,74,29.53,2.5,WNW,10.4,16.1,0.00,Snow,Light Snow,290,2013-03-23 11:01:00
7:10 AM,26.6,19.4,74,29.53,4.0,West,8.1,19.6,0.00,Snow,Light Snow,280,2013-03-23 11:10:00
7:14 AM,26.6,19.4,74,29.53,2.5,West,10.4,20.7,0.00,Snow,Light Snow,280,2013-03-23 11:14:00
7:22 AM,26.6,19.4,74,29.53,1.2,WNW,8.1,20.7,0.00,Snow,Light Snow,290,2013-03-23 11:22:00
7:35 AM,26.6,19.4,74,29.53,2.0,West,8.1,20.7,0.00,Snow,Light Snow,280,2013-03-23 11:35:00
7:45 AM,26.6,19.4,74,29.53,2.0,West,9.2,20.7,0.00,Snow,Light Snow,280,2013-03-23 11:45:00
7:49 AM,26.6,19.4,74,29.53,1.5,Variable,5.8,-,0.00,Snow,Light Snow,0,2013-03-23 11:49:00
7:52 AM,26.1,19.0,75,29.57,1.2,West,9.2,-,0.00,Snow,Light Snow,270,2013-03-23 11:52:00
8:42 AM,26.6,19.4,74,29.52,2.0,West,11.5,21.9,0.00,Snow,Light Snow,270,2013-03-23 12:42:00
8:52 AM,27.0,19.0,72,29.57,4.0,WNW,9.2,21.9,0.00,Snow,Light Snow,290,2013-03-23 12:52:00
9:40 AM,28.4,19.4,69,29.51,2.0,WNW,11.5,25.3,0.00,Snow,Light Snow,290,2013-03-23 13:40:00
9:44 AM,28.4,19.4,69,29.51,1.2,WNW,10.4,25.3,0.00,Snow,Light Snow,300,2013-03-23 13:44:00
9:52 AM,28.0,19.0,69,29.55,1.2,WNW,12.7,27.6,0.00,Snow,Light Snow,300,2013-03-23 13:52:00
10:00 AM,28.4,19.4,69,29.50,1.8,WNW,15.0,28.8,0.00,Snow,Light Snow,300,2013-03-23 14:00:00
10:08 AM,30.2,19.4,64,29.50,2.5,WNW,11.5,29.9,0.00,Snow,Light Snow,300,2013-03-23 14:08:00
10:15 AM,30.2,17.6,60,29.50,5.0,WNW,11.5,28.8,0.00,Snow,Light Snow,300,2013-03-23 14:15:00
10:29 AM,30.2,17.6,60,29.49,4.0,WNW,17.3,31.1,0.00,Snow,Light Snow,300,2013-03-23 14:29:00
10:52 AM,30.0,19.9,66,29.54,2.5,Variable,6.9,19.6,0.00,Snow,Light Snow,0,2013-03-23 14:52:00
10:56 AM,28.4,19.4,69,29.49,1.8,WNW,9.2,19.6,0.00,Snow,Light Snow,290,2013-03-23 14:56:00
11:05 AM,28.4,21.2,74,29.49,0.8,WNW,11.5,24.2,0.00,Snow,Light Snow,290,2013-03-23 15:05:00
11:37 AM,30.2,21.2,69,29.49,1.2,WNW,9.2,17.3,0.00,Snow,Light Snow,300,2013-03-23 15:37:00
11:47 AM,30.2,21.2,69,29.49,1.8,NW,12.7,24.2,0.00,Snow,Light Snow,310,2013-03-23 15:47:00
11:52 AM,30.0,21.0,69,29.54,1.5,WNW,9.2,24.2,0.00,Snow,Light Snow,300,2013-03-23 15:52:00
12:06 PM,30.2,21.2,69,29.49,2.5,NW,10.4,23.0,0.00,Snow,Light Snow,310,2013-03-23 16:06:00
12:14 PM,30.2,21.2,69,29.50,1.8,NW,12.7,23.0,0.00,Snow,Light Snow,310,2013-03-23 16:14:00
12:23 PM,30.2,21.2,69,29.49,2.0,NNW,10.4,24.2,0.00,Snow,Light Snow,340,2013-03-23 16:23:00
12:32 PM,32.0,21.2,64,29.50,3.0,NW,10.4,25.3,0.00,Snow,Light Snow,310,2013-03-23 16:32:00
12:52 PM,32.0,21.0,64,29.55,2.5,NW,18.4,35.7,0.00,Snow,Light Snow,310,2013-03-23 16:52:00
1:04 PM,33.8,21.2,60,29.51,4.0,NW,11.5,24.2,0.00,Snow,Light Snow,310,2013-03-23 17:04:00
2:42 PM,30.2,19.4,64,29.54,6.0,NW,8.1,21.9,0.00,Snow,Light Snow,310,2013-03-23 18:42:00
2:52 PM,30.9,19.9,64,29.59,6.0,WNW,10.4,21.9,0.00,Snow,Light Snow,300,2013-03-23 18:52:00
3:31 PM,30.2,21.2,69,29.55,2.5,NW,10.4,23.0,0.00,Snow,Light Snow,310,2013-03-23 19:31:00
3:45 PM,32.0,21.2,64,29.55,5.0,WNW,12.7,24.2,0.00,Snow,Light Snow,300,2013-03-23 19:45:00
3:52 PM,32.0,21.0,64,29.60,5.0,NW,11.5,24.2,0.00,Snow,Light Snow,310,2013-03-23 19:52:00
4:05 PM,32.0,21.2,64,29.56,2.5,WNW,15.0,23.0,0.00,Snow,Light Snow,300,2013-03-23 20:05:00
4:40 PM,32.0,23.0,69,29.57,1.5,WNW,9.2,28.8,0.00,Snow,Light Snow,300,2013-03-23 20:40:00
4:52 PM,32.0,23.0,69,29.62,2.0,Variable,6.9,-,0.00,Snow,Light Snow,0,2013-03-23 20:52:00
4:59 PM,32.0,23.0,69,29.57,1.5,Variable,5.8,23.0,0.00,Snow,Light Snow,0,2013-03-23 20:59:00
5:12 PM,32.0,23.0,69,29.57,2.0,WNW,9.2,25.3,0.00,Snow,Light Snow,290,2013-03-23 21:12:00
5:52 PM,30.9,23.0,72,29.64,1.5,NW,11.5,23.0,0.00,Snow,Light Snow,310,2013-03-23 21:52:00
5:59 PM,30.2,24.8,80,29.59,1.0,NW,10.4,20.7,0.00,Snow,Light Snow,310,2013-03-23 21:59:00
6:18 PM,30.2,23.0,75,29.60,1.5,NW,10.4,23.0,0.00,Snow,Light Snow,310,2013-03-23 22:18:00
6:34 PM,30.2,23.0,75,29.61,1.8,WNW,11.5,21.9,0.00,Snow,Light Snow,300,2013-03-23 22:34:00
6:37 PM,30.2,23.0,75,29.61,2.0,WNW,9.2,21.9,0.00,Snow,Light Snow,300,2013-03-23 22:37:00
6:52 PM,30.9,23.0,72,29.67,2.5,WNW,6.9,19.6,0.00,Snow,Light Snow,300,2013-03-23 22:52:00
6:58 PM,30.2,23.0,75,29.62,3.0,WNW,8.1,19.6,0.00,Snow,Light Snow,300,2013-03-23 22:58:00
7:50 PM,30.2,24.8,80,29.64,2.5,Variable,5.8,-,0.00,Snow,Light Snow,0,2013-03-23 23:50:00
7:52 PM,30.0,24.1,79,29.69,2.5,WNW,8.1,-,0.00,Snow,Light Snow,290,2013-03-23 23:52:00
8:21 PM,30.2,24.8,80,29.65,4.0,WNW,10.4,19.6,0.01,Snow,Light Snow,290,2013-03-24 00:21:00
8:52 PM,30.0,24.1,79,29.70,5.0,WNW,11.5,21.9,0.01,Snow,Light Snow,290,2013-03-24 00:52:00
9:52 PM,30.0,24.1,79,29.70,4.0,WNW,9.2,28.8,0.00,Snow,Light Snow,300,2013-03-24 01:52:00
10:30 PM,30.2,24.8,80,29.65,4.0,NW,9.2,18.4,0.00,Snow,Light Snow,310,2013-03-24 02:30:00
10:44 PM,30.2,24.8,80,29.65,2.5,WNW,8.1,20.7,0.00,Snow,Light Snow,300,2013-03-24 02:44:00
10:52 PM,30.0,23.0,75,29.70,3.0,NW,8.1,-,0.00,Snow,Light Snow,310,2013-03-24 02:52:00
11:52 PM,30.0,23.0,75,29.70,5.0,West,9.2,17.3,0.00,Snow,Light Snow,280,2013-03-24 03:52:00